sat.trackr.live / text

‹ back to catalog

STARLINK-33754

NORAD 63487 · 2025-070AD

PAYLOAD ACTIVE UNKNOWN

§ Identity

Operator
Country
US
Launch date
2025-04-06
Launch site
AFETR
Launch vehicle
Mass (kg)
RCS (m²)

Purposes: comms

External: N2YO · Heavens-Above · Gunter

§ Orbital elements

Epoch: 2026-05-25T02:45:58.741344Z

Period
94.27 min
Inclination
42.9992°
Eccentricity
0.0001180
Mean motion
15.27563608 rev/d
Perigee alt
482.3 km
Apogee alt
483.9 km
Semi-major
6,861.2 km
B*
2.5486e-4
RAAN
188.2679°
Arg perigee
289.3944°
Mean anomaly
70.6781°
Rev number
6,466

§ Raw data

STARLINK-337541 63487U 25070AD  26145.11526321  .00006754  00000+0  25486-3 0  99902 63487  42.9992 188.2679 0001180 289.3944  70.6781 15.27563608 64669

JSON: /api/v1/satellites/63487 · /tle

For live sub-satellite position, see the globe view (requires WebGL).

§ Visibility from observer

Set your observer location to see the next 7 days of passes ≥ 10°. The values pass through the URL so the page stays shareable.

No JS? Fill the form by hand. The geolocation button needs JavaScript.